Humidity-temperature Sensor

Selected Measurement Type: Relative Humidity

 
Relative Humidity [%]     6 entries per hour
Showing data from 12/16/2016 (23:50:00 Z) to 12/15/2016 (00:01:00 Z)
Previous Next [ Day | 3-Days | 7-Days ]
First Last
Prev [ Day | 3-Days | 7-Days ] Next
First Last

Start Time:     :
End Time:     :     
Time (in GMT) :00 :50 :40 :30 :20 :10
Previous Next [ Day | 3-Days | 7-Days ]
First Last
Prev [ Day | 3-Days | 7-Days ] Next
First Last


123 => good data
MM => data is determined as missing
-- => data not received/configured
Back to Top Back to Top
12/17/2016 00:00 to 23:10 -- 84.43 84.24 83.63 83.35 82.76
12/16/2016 23:00 to 22:10 83.20 83.12 83.73 84.72 84.28 84.55
12/16/2016 22:00 to 21:10 84.89 85.35 85.48 84.99 84.51 85.18
12/16/2016 21:00 to 20:10 86.28 87.16 87.18 87.01 87.26 88.12
12/16/2016 20:00 to 19:10 87.30 87.12 86.34 85.46 85.14 85.43
12/16/2016 19:00 to 18:10 85.27 84.76 84.64 84.11 83.46 84.00
12/16/2016 18:00 to 17:10 83.69 83.48 83.20 82.76 83.02 83.10
12/16/2016 17:00 to 16:10 82.32 84.43 84.24 83.98 83.37 83.16
12/16/2016 16:00 to 15:10 82.26 82.41 83.12 82.32 81.23 80.96
12/16/2016 15:00 to 14:10 81.48 82.22 82.28 83.23 82.43 83.48
12/16/2016 14:00 to 13:10 84.43 86.44 85.64 86.72 86.17 86.21
12/16/2016 13:00 to 12:10 86.42 86.34 86.78 86.51 86.91 86.63
12/16/2016 12:00 to 11:10 87.45 87.20 86.70 85.92 85.92 86.32
12/16/2016 11:00 to 10:10 85.96 85.54 85.79 85.75 84.72 84.17
12/16/2016 10:00 to 9:10 83.77 83.06 83.37 84.15 84.17 83.27
12/16/2016 09:00 to 8:10 84.17 84.42 84.30 84.61 84.55 84.45
12/16/2016 08:00 to 7:10 83.12 84.17 83.75 82.95 83.39 83.96
12/16/2016 07:00 to 6:10 83.90 83.48 83.84 84.74 84.00 85.35
12/16/2016 06:00 to 5:10 85.60 86.02 85.43 86.70 87.20 86.68
12/16/2016 05:00 to 4:10 87.50 86.97 86.72 86.67 86.51 85.75
12/16/2016 04:00 to 3:10 84.24 84.87 85.27 85.52 85.33 85.81
12/16/2016 03:00 to 2:10 85.88 85.54 85.06 86.23 85.10 84.51
12/16/2016 02:00 to 1:10 -- -- -- -- -- --
12/16/2016 01:00 to 0:10 83.29 83.10 83.08 82.99 83.12 81.67
12/16/2016 00:00 to 23:10 80.83 81.59 82.32 80.81 82.85 82.78
12/15/2016 23:00 to 22:10 83.42 82.81 84.11 84.43 83.94 82.58
12/15/2016 22:00 to 21:10 82.62 81.59 81.75 81.36 81.21 80.85
12/15/2016 21:00 to 20:10 81.17 81.38 81.67 83.04 83.48 83.90
12/15/2016 20:00 to 19:10 84.05 84.03 84.00 83.60 84.03 83.71
12/15/2016 19:00 to 18:10 83.10 83.90 83.77 83.86 84.49 84.91
12/15/2016 18:00 to 17:10 84.80 85.98 86.82 86.04 86.61 87.01
12/15/2016 17:00 to 16:10 87.03 86.40 85.64 86.32 85.64 86.21
12/15/2016 16:00 to 15:10 85.62 86.42 86.89 88.48 87.81 86.27
12/15/2016 15:00 to 14:10 86.93 87.07 86.61 87.07 86.57 86.82
12/15/2016 14:00 to 13:10 87.30 87.79 86.97 86.72 87.62 87.39
12/15/2016 13:00 to 12:10 88.88 88.90 90.02 91.72 92.90 91.01
12/15/2016 12:00 to 11:10 90.40 91.05 89.62 88.19 87.45 88.12
12/15/2016 11:00 to 10:10 -- -- -- -- -- --
12/15/2016 10:00 to 9:10 88.86 84.97 84.76 86.04 87.22 91.93
12/15/2016 09:00 to 8:10 90.58 91.66 90.94 89.30 86.30 86.46
12/15/2016 08:00 to 7:10 87.18 86.65 86.72 87.07 86.74 86.84
12/15/2016 07:00 to 6:10 87.09 87.03 88.53 90.61 93.53 95.04
12/15/2016 06:00 to 5:10 -- -- -- -- -- --
12/15/2016 05:00 to 4:10 88.00 87.43 88.23 87.68 87.45 87.28
12/15/2016 04:00 to 3:10 87.79 88.00 90.44 92.69 90.71 91.60
12/15/2016 03:00 to 2:10 91.85 91.40 88.74 87.49 88.06 89.76
12/15/2016 02:00 to 1:10 93.76 94.60 94.50 93.66 92.92 93.47
12/15/2016 01:00 to 0:10 94.88 94.73 95.17 94.27 93.53 93.76